RH
2 2 2 2 2 2 3 3 4 4 4 4 5 5 5 5 6 7 7 6 7 8 8 9 8 7 8 9 8 8 8 8 9 9 9 10 10 10 11 12 13 14 16 19 21 31 31 22 20 24 37 57 80 100
3 2 2 2 3 3 3 4 4 4 4 4 5 5 5 6 6 6 6 7 7 8 8 7 7 8 7 8 9 8 10 10 8 8 8 10 10 10 12 14 16 19 22 21 25 26 24 21 26 42 64 89 100 96
3 3 3 3 3 3 4 5 5 4 4 4 5 5 5 6 6 6 6 6 6 6 6 7 7 7 8 9 9 11 10 10 9 8 8 9 11 14 16 17 19 23 25 26 26 26 28 41 55 76 98 96 96 87
3 4 4 4 4 5 5 5 5 5 5 5 5 5 5 5 6 6 7 7 7 7 7 8 10 11 10 9 10 10 10 8 8 10 11 14 16 18 19 21 23 27 28 26 29 36 56 74 85 97 99 92 90 90
4 5 5 5 6 6 6 6 5 5 5 5 5 6 6 6 6 6 7 8 9 9 11 11 8 8 8 8 9 9 9 9 10 13 15 18 22 22 23 26 31 30 28 34 47 79 84 92 100 100 100 100 93 87
6 6 6 6 6 6 6 6 6 6 6 6 7 7 8 9 9 9 9 9 9 8 8 8 8 6 7 8 7 8 11 14 16 17 22 26 29 26 27 26 26 32 40 53 77 84 87 89 89 91 100 96 90 93
7 7 7 7 7 7 7 7 7 7 9 9 9 9 8 8 7 7 7 6 7 7 8 8 9 9 10 12 15 18 19 20 20 24 26 27 29 27 25 28 30 35 44 62 84 84 84 91 92 95 95 92 93 93
8 8 8 9 10 10 9 9 9 9 8 7 7 7 7 6 6 6 7 7 8 9 10 9 11 15 19 22 21 20 22 23 24 27 32 34 31 28 26 30 39 47 60 79 88 96 97 92 93 95 96 96 89 92
8 9 9 9 9 10 10 10 9 8 7 7 7 7 7 7 7 8 8 8 10 11 15 19 20 22 23 25 28 27 29 32 34 33 30 28 27 28 29 36 44 59 77 85 89 89 93 94 98 99 94 92 84 87
10 10 10 11 12 11 10 9 9 8 8 8 8 7 8 9 9 9 10 10 14 20 24 24 24 28 30 32 36 36 34 32 31 29 27 27 28 34 42 55 68 80 88 90 91 92 90 87 91 93 86 78 80 86
11 12 11 11 12 11 10 10 11 11 11 10 10 11 12 12 13 12 15 19 25 29 28 32 35 37 41 35 32 31 31 34 33 37 42 55 70 75 83 89 92 97 96 94 88 86 83 80 72 72 79 80 78 75
12 12 12 12 12 12 13 14 12 10 9 10 12 14 16 17 18 22 28 32 36 38 38 35 32 30 33 34 34 38 50 55 66 67 77 88 82 84 88 88 87 82 76 70 67 66 66 66 64 63 60 59 61 63
9 10 12 13 13 14 15 13 12 13 15 16 18 21 22 27 33 37 37 38 36 32 31 31 39 44 46 53 60 75 86 87 79 86 86 81 79 78 74 73 72 70 64 55 50 48 45 41 39 38 40 45 46 48
10 11 12 13 14 15 13 12 14 16 18 20 25 30 30 29 30 33 34 34 36 39 42 46 57 66 73 80 84 90 82 81 84 82 76 71 68 65 59 51 43 36 31 28 27 26 26 26 26 27 28 28 29 31
9 10 10 11 12 13 12 13 14 17 19 20 21 24 27 33 34 37 42 47 49 51 55 63 73 79 83 82 76 78 79 76 74 72 70 63 55 44 36 27 23 20 18 17 16 15 14 14 14 15 16 19 21 23
8 7 8 9 11 13 14 16 16 17 20 18 21 28 33 33 36 41 44 45 46 54 59 71 85 85 84 77 77 75 71 66 63 59 54 46 36 29 24 21 19 16 12 12 11 11 10 10 11 11 12 14 16 18
7 7 8 11 14 16 17 16 16 16 18 24 32 35 33 37 40 43 45 45 48 58 70 73 76 76 70 74 70 66 62 54 52 46 38 33 28 24 22 19 16 14 12 11 10 10 9 9 9 10 11 12 14 15
8 8 9 12 14 17 18 17 16 21 29 37 38 36 38 40 40 39 39 41 53 64 67 68 68 73 74 67 61 56 54 49 40 35 32 29 24 21 20 16 14 13 12 11 10 9 8 9 9 10 11 12 13 14
9 9 11 13 15 17 20 23 28 33 38 40 37 34 34 35 35 38 44 52 55 55 56 63 67 65 62 58 53 49 42 39 39 36 35 30 23 20 18 16 14 13 12 10 9 9 9 9 10 10 11 13 14 15
9 13 15 15 16 18 19 23 28 31 32 32 32 34 37 40 42 43 45 45 46 52 57 57 56 55 51 46 42 42 44 45 41 36 35 31 24 20 18 16 14 12 11 10 9 9 9 9 10 11 12 12 13 14
8 12 16 21 21 21 21 24 27 30 34 37 40 41 42 44 43 44 47 49 51 51 49 48 48 46 45 44 44 43 43 43 40 39 35 30 25 21 19 18 14 13 12 10 10 10 10 10 10 10 11 12 14 14
10 10 12 16 19 21 23 26 31 38 38 36 37 38 39 41 42 43 45 45 45 46 47 47 47 48 46 44 44 45 44 41 40 38 36 32 27 22 20 19 16 14 13 12 12 11 11 12 12 12 13 13 14 14
10 11 12 13 14 18 23 27 29 32 34 36 37 37 38 41 44 46 44 46 46 46 46 47 46 44 44 44 44 43 41 41 41 37 34 32 27 22 21 21 20 16 14 13 13 13 13 14 14 14 13 14 14 16
10 10 12 15 18 19 20 23 28 30 32 36 39 40 40 41 42 41 42 44 46 46 46 47 46 48 47 45 46 45 40 36 34 33 31 29 25 22 22 21 20 19 16 15 14 14 14 15 16 16 15 15 16 18
9 10 10 15 18 23 24 23 25 27 31 32 32 33 34 35 38 40 41 42 44 46 48 47 46 45 43 41 39 36 34 32 30 29 30 26 23 21 20 20 20 19 18 17 16 15 16 17 18 19 19 19 22 27
7 8 9 11 15 18 22 25 26 28 30 32 34 35 36 38 39 40 38 38 39 40 40 40 38 36 34 31 30 29 27 27 26 27 25 22 21 20 20 19 19 20 19 18 17 16 16 16 18 19 22 22 24 28
7 7 7 7 10 11 13 17 20 24 28 32 32 33 34 36 35 32 31 33 32 30 28 28 27 27 27 27 28 27 26 25 23 22 20 18 19 20 20 18 18 19 19 18 17 16 16 17 17 17 19 22 25 27
7 7 7 8 8 9 10 11 12 14 16 16 18 20 21 21 22 22 21 22 23 25 25 26 25 25 25 25 25 23 21 19 18 18 18 17 17 18 17 17 16 16 16 16 16 16 16 16 16 17 17 18 20 21
5 5 6 7 8 9 9 10 11 11 12 12 12 12 13 14 15 16 18 19 20 20 21 23 23 23 22 21 19 18 18 18 17 16 15 15 14 14 14 14 14 14 14 14 14 14 14 14 14 15 16 17 18 19
6 6 6 6 7 8 8 9 10 11 12 13 14 14 14 15 15 16 17 17 18 18 18 18 18 18 16 16 15 15 16 15 14 13 13 13 13 13 13 13 12 12 12 13 13 13 14 14 14 15 16 16 17 17
6 7 7 6 6 7 7 7 7 7 7 8 9 10 10 11 11 11 12 12 14 15 15 14 13 13 12 12 13 13 14 13 12 12 12 12 12 12 11 11 12 11 12 12 13 13 13 14 14 14 15 16 16 17
5 6 7 8 7 6 7 7 8 7 7 6 7 7 8 8 8 9 10 10 10 11 10 9 9 9 9 10 10 10 10 10 10 10 10 10 10 10 10 10 11 11 12 12 12 12 13 13 13 14 14 15 16 16
5 6 6 5 5 6 7 8 8 9 8 8 8 8 8 9 8 8 9 8 7 7 7 7 8 8 8 9 8 8 8 8 8 9 9 9 9 9 10 10 11 10 10 11 11 11 12 12 13 14 14 15 15 15
Wind_Speed
22 23 24 26 29 32 34 37 37 38 39 41 44 45 46 48 49 52 55 54 53 52 54 53 56 55 50 54 54 54 52 54 55 56 54 53 51 51 48 47 41 40 36 36 33 30 35 39 32 32 34 33 27 28
20 21 22 24 25 27 29 30 31 32 34 36 38 39 40 41 43 45 45 45 45 47 50 49 47 48 46 44 44 43 44 47 47 44 43 43 42 41 39 35 34 32 34 33 30 34 34 31 29 32 30 28 29 30
15 17 18 19 21 24 27 28 29 30 32 33 34 34 36 37 38 39 39 39 41 43 40 39 38 36 36 37 36 37 41 39 40 39 37 35 30 33 33 33 31 30 31 30 30 32 31 30 31 29 29 30 31 28
14 15 17 19 21 23 25 26 27 28 28 29 31 32 32 32 32 32 34 34 33 32 32 29 28 31 34 33 33 36 35 34 31 30 29 29 31 32 32 30 29 28 29 30 31 30 29 31 30 28 28 26 27 29
17 18 19 20 22 23 24 25 26 27 28 28 27 28 29 30 29 29 29 29 30 28 28 33 34 31 30 29 30 30 30 29 29 29 31 32 33 32 30 29 29 30 28 28 28 30 32 31 30 29 26 27 30 30
18 19 20 21 22 24 25 25 26 27 26 26 28 28 28 27 28 28 29 30 31 33 31 28 28 29 28 28 26 24 23 26 30 31 31 32 32 31 31 31 29 29 30 29 30 31 31 31 29 27 28 31 30 29
19 20 22 23 23 24 24 26 26 26 28 28 28 28 29 29 30 32 31 30 29 29 30 30 29 29 25 21 23 26 29 31 31 31 32 32 32 33 30 28 28 28 29 30 31 31 29 28 29 30 30 30 30 32
21 23 24 25 25 25 25 25 25 25 25 26 26 27 28 28 28 28 29 31 31 31 30 28 26 24 26 28 30 31 31 29 29 29 29 30 31 29 27 26 28 29 30 30 29 29 31 31 31 32 32 33 32 31
23 25 25 26 25 25 25 25 25 24 24 25 26 27 28 28 28 29 29 31 31 31 30 30 31 32 31 29 28 27 27 26 27 28 30 29 28 27 27 28 28 29 30 31 32 32 33 33 34 35 34 34 32 29
24 25 26 26 25 24 24 24 25 25 25 25 26 28 30 29 29 31 32 33 33 32 32 31 31 30 29 29 28 27 27 27 27 27 26 25 24 24 26 27 28 28 30 31 32 34 35 34 35 36 36 34 32 31
24 25 25 25 25 25 25 26 27 28 28 28 28 29 29 30 32 33 33 32 32 31 30 29 27 27 27 27 27 26 24 24 24 23 22 21 22 24 24 26 28 30 32 34 36 36 37 37 36 36 36 35 35 34
26 25 25 26 27 28 29 29 28 27 28 28 29 32 35 36 35 34 33 33 32 31 30 28 27 26 26 25 23 22 22 21 20 21 20 21 23 24 27 29 31 33 34 34 35 35 36 37 37 38 38 38 37 37
25 26 26 26 27 29 29 29 29 28 28 29 31 34 35 36 35 34 33 33 31 29 26 24 25 23 23 22 20 18 18 18 18 18 21 22 23 25 26 27 29 31 33 34 34 36 37 38 38 38 38 38 38 37
25 26 27 27 28 28 27 28 30 32 34 37 38 37 36 35 34 33 31 28 26 25 25 24 23 21 20 19 19 18 19 18 18 19 19 20 22 24 26 28 29 31 32 33 33 34 36 37 38 38 39 40 40 40
26 27 27 28 28 27 27 28 31 34 36 37 36 35 35 35 34 32 30 28 27 25 24 22 22 21 20 20 19 18 17 16 15 16 18 20 23 24 25 26 28 29 29 29 31 32 34 35 37 39 40 41 42 42
26 27 27 26 26 25 26 28 30 32 34 33 33 35 36 33 32 30 28 25 24 23 22 22 21 20 19 18 16 15 14 14 15 16 18 20 22 24 25 26 27 28 28 28 29 30 30 30 31 32 34 36 38 40
21 23 26 27 27 27 26 28 30 30 29 31 33 34 32 31 29 27 26 25 24 23 21 21 21 19 17 16 14 14 14 13 14 16 18 21 23 24 25 27 28 28 28 25 25 24 24 25 26 27 27 29 31 32
19 22 25 26 26 27 27 27 26 28 32 34 35 34 32 31 29 26 23 21 20 20 20 19 17 15 15 15 15 14 13 14 15 16 19 21 23 23 25 25 25 24 22 22 22 22 21 22 23 24 24 25 26 27
22 23 24 25 26 27 28 27 27 31 33 34 34 31 28 25 23 21 21 22 22 20 19 17 17 17 16 16 14 13 14 15 15 17 19 22 22 22 22 23 22 20 19 19 19 19 19 20 21 22 23 23 24 25
24 24 22 22 24 26 26 29 32 34 33 32 30 26 23 21 21 20 20 19 18 18 17 17 17 17 17 15 14 13 14 15 17 18 21 23 24 22 21 21 19 18 18 17 18 18 18 18 19 19 21 22 24 25
21 24 25 25 24 24 24 25 26 26 27 27 25 24 24 24 22 22 21 20 19 19 18 17 17 16 15 15 14 15 16 18 20 21 22 23 23 22 21 21 19 17 17 16 16 16 16 17 19 20 21 23 24 25
17 18 21 23 23 23 25 29 30 30 30 30 29 29 28 26 25 23 21 20 20 19 18 19 18 18 18 18 18 19 20 21 22 23 24 26 24 24 22 21 20 18 17 17 17 17 18 18 19 20 21 22 23 23
14 15 16 17 19 22 24 25 26 28 29 29 29 28 28 27 26 25 23 23 23 22 21 21 21 22 22 22 22 24 24 24 24 25 25 26 26 24 23 22 21 20 18 18 18 19 18 19 19 20 20 21 22 23
13 15 16 17 18 19 21 26 27 28 29 30 30 30 30 30 29 27 26 26 26 26 25 25 25 25 26 26 27 28 28 28 27 27 27 28 27 26 24 23 22 21 21 20 20 20 20 20 21 21 21 21 22 23
13 15 16 18 20 21 21 23 25 27 28 29 30 30 31 30 30 30 30 30 30 29 29 30 30 31 31 31 31 30 31 31 30 29 30 30 28 27 26 24 24 23 23 23 22 22 22 22 23 23 24 23 24 25
11 14 17 18 20 22 23 24 25 27 28 29 30 31 32 32 33 34 33 34 34 34 34 34 34 34 34 33 33 32 31 30 30 30 31 30 30 29 28 26 24 24 25 25 24 24 24 25 26 26 26 27 28 29
11 12 13 15 18 19 22 24 26 28 30 32 32 33 34 36 36 35 35 36 37 36 35 35 34 34 33 32 31 31 32 32 32 32 31 30 29 28 28 28 26 25 27 27 27 27 27 27 28 29 29 30 31 33
9 11 12 14 15 16 18 20 23 25 26 27 29 32 33 33 33 33 34 33 33 33 33 32 31 31 31 32 33 33 33 32 31 30 29 29 28 27 28 28 27 27 27 28 28 28 28 29 29 29 30 31 33 35
9 10 11 12 12 14 15 17 19 21 22 24 25 26 27 26 27 27 29 29 29 29 30 31 32 32 32 32 32 31 30 29 29 28 28 27 27 27 28 28 28 27 28 28 28 29 29 30 30 30 31 32 33 35
9 11 11 13 14 14 15 16 18 19 20 21 23 24 25 25 26 26 27 28 29 30 30 31 31 31 31 30 29 28 28 29 29 28 27 26 26 26 27 27 27 27 27 27 28 28 28 29 30 31 31 32 33 34
11 11 13 14 14 15 16 16 16 16 17 19 20 22 22 22 23 24 24 25 26 27 28 29 30 30 30 28 27 28 28 29 28 27 26 25 26 25 25 24 25 26 26 26 27 28 28 29 30 31 31 32 33 34
11 12 13 14 15 16 16 17 18 19 20 20 20 20 21 22 23 23 24 25 26 27 28 29 29 29 28 28 28 27 27 27 26 26 25 25 25 25 25 24 25 25 25 25 26 27 28 29 30 31 32 32 33 33
14 14 15 16 15 16 18 19 19 19 20 20 21 21 21 21 20 20 24 26 27 27 25 25 25 25 26 27 27 26 26 26 26 25 25 25 25 24 24 24 25 25 25 26 26 27 27 28 29 30 31 31 32 33
Wind_Direction
232 229 229 227 224 222 219 219 221 222 222 222 223 225 227 229 231 233 235 237 240 240 242 242 242 243 243 242 243 244 245 246 246 247 248 247 246 247 247 248 247 242 244 247 246 237 237 243 247 247 250 248 246 240
216 214 212 210 210 208 209 211 213 215 216 216 217 218 221 223 225 228 231 232 233 234 235 237 239 239 240 240 240 240 238 240 241 242 240 240 238 238 238 232 229 229 231 235 230 235 244 250 249 246 243 239 236 241
203 201 198 195 195 196 197 200 202 204 206 208 210 213 215 217 219 221 224 225 226 228 231 232 232 233 232 231 229 228 230 231 234 234 235 233 224 222 218 218 221 222 222 226 231 237 240 240 238 234 230 233 238 247
183 183 182 182 181 185 189 190 194 195 197 199 202 205 207 209 210 212 213 216 219 221 221 220 221 220 222 223 224 227 229 228 226 223 219 210 207 207 209 212 214 219 223 225 229 233 231 230 232 233 232 236 247 255
162 164 167 170 173 176 180 182 185 187 189 192 193 194 195 198 200 202 203 204 207 209 207 208 213 213 215 215 218 222 222 217 215 206 199 196 200 204 207 210 212 216 223 224 226 222 223 228 230 231 237 245 257 264
158 158 159 163 166 169 172 173 175 178 176 175 179 184 187 188 192 193 195 195 195 199 202 203 208 209 206 209 210 207 204 199 197 192 190 195 202 207 209 212 210 214 218 220 218 224 225 229 232 237 245 254 260 270
150 151 152 154 158 160 161 162 166 165 167 172 176 180 183 184 185 187 187 187 188 190 191 194 193 193 190 182 183 186 189 189 188 189 195 201 207 211 212 210 214 218 221 222 223 227 229 233 239 246 253 260 264 274
145 146 148 149 154 158 161 160 162 164 166 168 171 173 176 179 179 179 179 179 179 181 181 181 173 173 172 179 184 186 187 188 188 193 199 205 210 213 215 216 219 220 223 227 230 234 237 240 247 252 259 262 269 274
148 149 150 150 153 154 153 155 158 159 159 160 163 166 168 169 170 172 172 172 169 165 163 166 170 172 173 177 179 182 183 187 191 196 201 205 211 215 219 221 223 225 228 231 235 240 244 250 252 256 260 265 268 270
146 147 149 149 149 149 149 150 151 151 152 155 158 163 161 164 165 164 163 161 154 155 162 167 167 169 171 173 175 181 185 188 194 202 207 210 217 221 221 223 227 230 236 240 243 247 249 252 255 259 261 263 265 267
143 147 147 146 146 146 146 147 148 150 153 156 157 154 154 155 154 155 152 151 153 157 160 162 164 165 169 176 182 186 189 196 203 207 209 211 214 220 224 229 234 238 241 243 245 248 251 255 257 258 259 262 264 265
144 144 141 142 144 144 146 149 153 153 152 152 151 152 151 153 153 149 149 151 153 157 160 164 166 173 177 184 189 192 196 199 202 207 210 216 223 229 234 237 242 245 247 249 251 253 254 256 257 259 260 261 263 264
148 144 143 145 145 148 153 154 150 146 144 144 146 150 152 151 150 149 152 156 158 160 162 166 172 180 183 186 187 190 195 202 208 215 221 226 233 239 245 248 252 254 255 256 255 256 257 258 259 259 260 260 259 260
147 146 148 150 153 158 159 154 150 149 152 152 154 155 156 154 151 152 154 155 159 164 169 174 177 179 179 185 191 198 204 210 217 226 235 242 247 250 253 255 257 259 261 262 261 260 259 259 259 258 257 257 258 258
148 150 154 156 160 161 161 158 156 156 158 161 160 156 154 153 155 156 158 163 165 170 173 173 176 182 188 195 198 204 212 222 231 241 250 255 259 261 263 266 270 272 270 267 264 262 259 256 254 253 253 253 254 255
155 157 155 156 156 158 157 158 161 162 163 163 157 154 157 158 160 162 165 168 169 172 173 174 181 189 196 202 208 217 227 236 243 252 258 263 268 272 277 278 279 280 279 275 270 265 262 258 254 251 250 250 249 251
155 155 152 152 155 156 161 164 166 167 161 155 155 161 163 163 167 169 173 174 173 176 179 185 191 198 205 212 220 231 238 246 253 260 267 274 276 283 286 287 285 282 280 275 269 263 260 257 254 250 248 246 246 247
154 153 152 154 157 159 163 168 167 161 159 160 167 171 171 174 175 176 177 178 179 185 191 197 202 207 217 227 235 242 248 255 262 270 277 283 288 290 289 289 287 282 277 273 266 259 255 252 249 244 243 243 244 244
151 154 157 161 162 164 164 166 165 165 167 172 178 180 179 178 176 178 181 186 191 194 199 205 211 219 228 235 242 245 252 262 272 281 288 291 295 297 294 292 288 282 277 274 265 257 254 251 248 246 243 241 243 245
154 154 159 165 167 170 170 169 171 176 178 182 184 183 179 181 186 192 196 198 200 202 207 214 220 226 234 239 245 254 264 275 282 286 292 293 296 299 297 296 291 281 279 274 269 265 258 253 251 248 247 247 248 247
164 162 164 168 173 174 173 175 177 181 181 184 188 189 191 194 198 200 203 204 208 212 217 223 228 234 242 249 257 266 272 276 284 287 292 293 297 301 300 297 291 280 282 274 267 266 262 259 255 252 249 247 248 250
171 175 174 174 177 181 183 182 183 187 192 196 196 198 200 204 210 213 215 217 220 225 230 235 241 247 252 260 267 272 275 280 287 289 292 295 296 299 299 297 291 281 277 275 265 266 268 263 259 254 252 251 252 254
180 181 184 188 187 186 189 192 196 199 202 205 207 208 210 213 217 221 222 226 231 236 241 246 251 256 262 267 272 274 278 283 286 287 288 291 292 294 296 294 290 285 279 277 273 268 270 263 260 256 252 253 255 255
189 191 190 193 199 203 202 201 203 207 210 210 213 215 218 222 226 229 232 235 239 242 248 252 257 261 265 269 273 278 282 283 283 285 287 287 287 290 291 290 287 282 278 274 274 270 269 267 265 262 257 258 256 252
196 200 200 202 205 206 211 215 215 217 220 222 223 225 227 232 234 237 239 243 246 250 253 256 260 264 267 272 275 278 279 281 284 284 285 284 285 285 286 286 281 280 275 273 272 272 268 266 267 265 261 263 258 255
217 216 211 212 213 214 214 216 220 225 227 230 231 233 235 237 239 242 244 246 250 252 255 258 261 266 270 273 276 278 280 281 282 281 281 282 282 283 283 282 280 277 275 272 270 269 270 267 266 266 264 263 265 265
238 236 233 236 230 227 224 225 226 228 229 231 234 236 238 241 243 246 249 252 255 258 261 264 267 271 275 277 278 279 279 278 278 278 280 280 279 279 279 280 278 274 272 271 270 268 267 269 268 267 266 265 265 266
239 239 241 240 240 241 239 237 234 234 236 239 241 241 245 247 250 252 255 257 260 262 265 267 268 269 271 271 272 272 274 276 277 278 276 275 275 276 274 273 273 270 268 268 267 268 268 268 270 270 270 270 270 271
259 252 240 237 241 243 245 247 248 247 248 248 250 251 253 256 258 260 260 262 263 265 266 266 266 267 268 269 270 272 273 274 272 270 270 272 272 271 271 270 269 270 269 268 268 269 271 270 271 275 276 274 273 273
274 269 259 250 246 242 242 242 244 244 244 246 249 251 253 254 256 256 256 256 257 258 260 261 263 263 263 264 266 266 266 267 267 268 269 268 268 268 268 268 268 267 267 268 268 271 274 273 272 275 278 280 279 278
285 277 269 264 260 255 256 256 254 253 251 249 248 250 251 252 253 255 256 256 256 256 257 257 257 259 260 261 261 260 261 263 265 266 265 265 265 265 265 265 265 266 267 270 272 273 275 274 274 275 278 281 283 283
287 280 272 268 265 264 265 261 258 257 255 254 254 253 253 254 254 253 254 254 254 254 254 255 256 258 261 262 262 261 261 262 264 265 265 263 262 262 263 263 263 264 268 271 274 275 277 276 277 278 280 283 284 286
291 282 275 272 270 266 262 263 265 263 260 258 255 255 256 256 256 256 255 256 257 261 266 268 268 267 266 267 268 269 268 268 268 266 266 266 267 267 267 265 265 266 270 272 274 277 278 278 279 281 283 286 287 289